* Astronomy

Members Login
Username 
 
Password 
    Remember Me  
Post Info TOPIC: Asteroid 2012 BO1


L

Posts: 131433
Date:
Asteroid 2012 BO1
Permalink  
 


Orbital elements:
2012 BO1                                                 Earth MOID = 0.1376 AU
Epoch 2012 Mar. 14.0 TT = JDT 2456000.5                 MPC
M  19.57428              (2000.0)            P               Q
n   0.63964148     Peri.   21.29334     -0.75024680     -0.65742000
a   1.3340690      Node   117.40599     +0.59460493     -0.71734079
e   0.1601331      Incl.    4.53568     +0.28909292     -0.23069704
P   1.54           H   24.9           G   0.15           U   9

MPEC 2012 - B10



__________________
Page 1 of 1  sorted by
 
Quick Reply

Please log in to post quick replies.



Create your own FREE Forum
Report Abuse
Powered by ActiveBoard